Location: St. Louis
(38.6270°N, 90.1994°W)
Time: 08:52:06
(UTC-06:00)

Transit 2A Rocket - Pass Details

Date: 03 December 2021
Orbit: 584 x 917 km, 66.7° (Epoch: 23 January)

Event Time Altitude Azimuth Distance (km) Brightness Sun altitude
Rises 06:00:31 0° 158° (SSE) 3,243 8.9 -11.8°
Reaches altitude 10° 06:03:52 10° 135° (SE) 2,390 8.7 -11.2°
Maximum altitude 06:06:55 15° 102° (ESE) 2,111 8.6 -10.6°
Drops below altitude 10° 06:10:05 10° 69° (ENE) 2,509 8.4 -10.0°
Sets 06:13:43 0° 47° (NE) 3,501 8.8 -9.4°
